Regional Weather Roundup
Issued by NWS Green Bay, WI

Home | Current Version | Previous Version | Text Only | Print | Product List | Glossary On
Versions: 1 2 3 4 5 6 7 8 9 10 11 12 13 14 15 16 17 18 19 20 21 22 23 24 25 26 27 28 29 30 31 32 33 34 35 36 37 38 39 40 41 42 43 44 45 46 47 48 49 50
000
ASUS43 KGRB 170111
RWRGRB

NORTH-CENTRAL AND NORTHEAST WISCONSIN REGIONAL WEATHER ROUNDUP
NATIONAL WEATHER SERVICE GREEN BAY WI
700 PM CST TUE JAN 16 2018

WIZ005-009-010>012-018-019-170200-
NORTH CENTRAL WISCONSIN

CITY           SKY/WX    TMP DP  RH WIND       PRES   REMARKS
IRONWOOD       FAIR      10   6  84 W10       30.42F WCI  -4
MANITOWISH WTR FAIR       1  -1  90 W5        30.38F WCI  -9
ARBOR VITAE    FAIR       9   6  89 CALM      30.38F
EAGLE RIVER    FAIR       3  -1  86 CALM      30.37F
LAND O LAKES   FAIR       3   0  87 CALM      30.38F
RHINELANDER    FAIR       2   1  96 W5        30.39F WCI  -8
PHILLIPS       FAIR      11   6  77 W3        30.42S
ANTIGO         FAIR       6   3  88 W3        30.41F
TOMAHAWK       FAIR       9   5  83 CALM      30.42F
MERRILL        FAIR      12   7  82 W7        30.45S WCI   1
$$

WIZ013-073-170200-
NORTHEAST WISCONSIN

CITY           SKY/WX    TMP DP  RH WIND       PRES   REMARKS
IRON MOUNTAIN  MOCLDY     5   3  91 CALM      30.40F
MARINETTE      FAIR      11   7  84 CALM      30.48S
OCONTO         FAIR       5   2  88 CALM      30.48S
$$

WIZ017-030-035>037-045-170200-
CENTRAL WISCONSIN

CITY           SKY/WX    TMP DP  RH WIND       PRES   REMARKS
MEDFORD        FAIR       8   4  84 W5        30.44F WCI   0
WAUSAU         FAIR      11   6  81 W9        30.44F WCI  -2
MOSINEE        CLEAR     10   7  85 W9        30.47S WCI  -2
MARSHFIELD     FAIR       7   4  87 W8        30.47S WCI  -6
WISC RAPIDS    FAIR      13   6  74 W8        30.51S WCI   2
STEVENS POINT  FAIR      12   7  79 W6        30.48F WCI   3
WAUPACA        CLOUDY    22  14  71 W6        30.50R
SHAWANO        MOCLDY    20  11  66 CALM      30.47S
CLINTONVILLE   CLOUDY    19   9  63 CALM      30.48S
WAUTOMA        FAIR      15   9  76 W12       30.52R WCI   2
$$

WIZ038-039-048-051-170200-
FOX VALLEY

CITY           SKY/WX    TMP DP  RH WIND       PRES   REMARKS
NWS GREEN BAY  FAIR       9   7  92 W5        30.48F WCI   1
APPLETON       MOCLDY    16   7  67 W6        30.46S WCI   7
OSHKOSH        CLOUDY    18  13  80 W5        30.49S
FOND DU LAC    CLOUDY    18  10  71 W6        30.49S WCI  10
$$

WIZ022-050-052-170200-
EAST CENTRAL WISCONSIN

CITY           SKY/WX    TMP DP  RH WIND       PRES   REMARKS
EPHRAIM        CLOUDY    14  10  87 W6        30.44S WCI   5
WASHINGTON ISL FLURRIES  14  11  90 CALM      30.45S
STURGEON BAY   NOT AVBL
MANITOWOC      FLURRIES  13   9  84 W3        30.50R
SHEBOYGAN      MOCLDY     5   3  91 W6        30.49S WCI  -6
$$

LMZ563-521-522-541>543-170200-
LAKESHORE

STATION/POSITION TIME  TEMP    WIND        PRES    VSBY  WAVE
                       AIR SEA DIR/SP/G                  HT/PER
                 (UTC) (F)     (DEG/KT/KT) (MB)    (MI)  (FT/S)
SHEBOYGAN LKSHOR 0100   18     270/  7/  9 1033.9R
KEWAUNEE LKSHORE 0048   13     310/  4/  4 1031.3R
NORTHPORT PIER   0040   16     250/  4/  6 1031.2S
MENOMINEE LKSHOR 0048   15     250/  3/  5 1031.3R
$$




USA.gov is the U.S. government's official web portal to all federal, state and local government web resources and services.